Overview Statistics Trail Chart Weather Telemetry Raw packets
 

This is the latest recevied weather packets stored in our database for station/object KF4BAQ-10. If no packets are shown the sender has not sent any weather packets the latest 10 day(s).

<< 3 4 5 6 7 8 9 >>
Time Temp. Humidity Pressure Rain* Wind** Luminosity Snow
1788504413 19.44° C 46% 1017.8 hPa - - - -
1788503513 19.44° C 44% 1018.1 hPa - - - -
1788502608 19.44° C 44% 1018.2 hPa - - - -
1788501737 19.44° C 45% 1018.3 hPa - - - -
1788500807 19.44° C 45% 1018.3 hPa - - - -
1788499906 19.44° C 44% 1018.4 hPa - - - -
1788499006 19.44° C 45% 1018.5 hPa - - - -
1788498106 19.44° C 43% 1018.5 hPa - - - -
1788497205 19.44° C 43% 1018.7 hPa - - - -
1788496300 19.44° C 44% 1018.5 hPa - - - -
1788495400 19.44° C 43% 1018.6 hPa - - - -
1788494500 19.44° C 44% 1018.6 hPa - - - -
1788493599 19.44° C 46% 1018.7 hPa - - - -
1788492694 19.44° C 43% 1018.7 hPa - - - -
1788491793 19.44° C 43% 1018.9 hPa - - - -
1788490890 19.44° C 43% 1019 hPa - - - -
1788489990 19.44° C 42% 1019 hPa - - - -
1788489090 19.44° C 42% 1018.9 hPa - - - -
1788488189 19.44° C 41% 1018.7 hPa - - - -
1788487289 19.44° C 41% 1018.7 hPa - - - -
1788486388 19.44° C 41% 1018.7 hPa - - - -
1788485487 19.44° C 42% 1018.5 hPa - - - -
1788484587 19.44° C 41% 1018.3 hPa - - - -
1788483686 19.44° C 42% 1018.2 hPa - - - -
1788482784 19.44° C 42% 1018.1 hPa - - - -

* Rain since midnight (hover to see other rain measurements)
** Current wind speed in m/s (hover to see current wind gust speed)